K5TCS Weather Reports


Display with metric or nautical units.
time (UTC)temp
F
wind
direction
speed
MPH
gust
MPH
rain 1hr
in
rain 24hr
in
rain mn
in
humidity
%
barometer
mb
20260906223016 76 248 1.0 3.0 0.00 0.02 0.00 43 1025.4
20260906222017 76 270 1.0 4.0 0.00 0.02 0.00 43 1025.9
20260906221017 76 0.0 2.0 0.00 0.02 0.00 42 1025.9
20260906220017 76 270 1.0 6.0 0.00 0.02 0.00 42 1026.2
20260906215017 75 270 3.0 9.0 0.00 0.02 0.00 44 1026.0
20260906214017 75 248 2.0 6.0 0.00 0.02 0.00 44 1026.0
20260906213016 74 248 3.0 7.0 0.00 0.02 0.00 44 1025.7
20260906212036 75 248 2.0 6.0 0.00 0.03 0.00 44 1026.1
20260906211017 75 248 1.0 5.0 0.00 0.03 0.00 45 1026.0
20260906210016 75 0.0 3.0 0.00 0.03 0.00 47 1026.4
20260906205017 76 270 1.0 5.0 0.00 0.04 0.00 46 1027.1
20260906204016 77 0.0 5.0 0.00 0.04 0.00 44 1027.1
20260906203057 77 113 1.0 7.0 0.00 0.06 0.00 44 1027.2
20260906202016 77 113 2.0 6.0 0.00 0.11 0.00 42 1027.5
20260906201016 78 135 1.0 6.0 0.00 0.11 0.00 43 1027.5
20260906200037 78 113 1.0 7.0 0.00 0.12 0.00 42 1027.7
20260906195037 78 113 2.0 9.0 0.00 0.12 0.00 43 1027.8
20260906194016 78 113 3.0 11.0 0.00 0.12 0.00 44 1027.9
20260906193016 79 90 4.0 18.0 0.00 0.12 0.00 43 1028.3
20260906192016 81 135 4.0 12.0 0.00 0.12 0.00 41 1028.9
20260906191016 82 135 3.0 8.0 0.00 0.12 0.00 42 1029.2
20260906190016 82 90 1.0 6.0 0.00 0.12 0.00 41 1029.2
20260906185016 82 135 1.0 5.0 0.00 0.12 0.00 40 1029.9
20260906184016 82 113 2.0 8.0 0.00 0.12 0.00 39 1030.0
20260906183016 81 113 2.0 10.0 0.00 0.12 0.00 41 1030.1
20260906182036 82 45 2.0 6.0 0.00 0.12 0.00 39 1030.4
20260906181016 80 90 1.0 6.0 0.00 0.12 0.00 41 1030.3
20260906180036 79 0.0 4.0 0.00 0.13 0.00 41 1030.7
20260906175016 79 45 1.0 6.0 0.00 0.25 0.00 40 1030.8
20260906174016 81 90 2.0 6.0 0.00 0.27 0.00 37 1031.2
20260906173136 80 113 1.0 6.0 0.00 0.30 0.00 36 1031.3
20260906172016 79 68 1.0 11.0 0.00 0.30 0.00 36 1031.1
20260906171016 77 0.0 0.0 0.00 0.30 0.00 37 1030.7
20260906170016 78 0.0 0.0 0.00 0.30 0.00 37 1030.9
20260906165016 78 0.0 0.0 0.00 0.30 0.00 36 1030.8
20260906164016 78 0.0 0.0 0.00 0.30 0.00 35 1031.0
20260906163016 77 0.0 0.0 0.00 0.30 0.00 34 1030.9
20260906162016 77 0.0 0.0 0.00 0.30 0.00 33 1031.1
20260906161016 77 0.0 0.0 0.00 0.30 0.00 31 1031.1
20260906160016 76 0.0 0.0 0.00 0.30 0.00 29 1030.4
20260906155016 75 0.0 0.0 0.00 0.30 0.00 24 1030.3
20260906154116 73 0.0 0.0 0.00 0.30 0.00 20 1029.8
20260906153016 71 0.0 0.0 0.00 0.30 0.00 16 1029.1
20260906152015 68 0.0 0.0 0.00 0.30 0.00 14 1028.6
20260906151016 67 0.0 3.0 0.00 0.30 0.00 13 1028.2
20260906150036 66 0.0 3.0 0.00 0.30 0.00 13 1027.9
20260906145016 65 0.0 0.0 0.00 0.30 0.00 13 1027.9
20260906144016 64 0.0 1.0 0.00 0.30 0.00 13 1027.3
20260906143035 64 0.0 3.0 0.00 0.30 0.00 14 1027.2
20260906142016 63 270 1.0 3.0 0.00 0.30 0.00 13 1027.2
20260906141035 63 270 1.0 4.0 0.00 0.30 0.00 13 1027.2
20260906140017 62 270 1.0 3.0 0.00 0.30 0.00 13 1027.2
20260906135017 62 0.0 2.0 0.00 0.30 0.00 13 1026.7
20260906134017 61 270 1.0 3.0 0.00 0.30 0.00 13 1026.7
20260906133017 60 0.0 1.0 0.00 0.30 0.00 14 1026.3
20260906132017 60 0.0 3.0 0.00 0.30 0.00 14 1026.2
20260906131017 60 0.0 2.0 0.00 0.30 0.00 14 1026.2
20260906130017 60 0.0 2.0 0.00 0.30 0.00 14 1026.2
20260906125017 60 0.0 2.0 0.00 0.30 0.00 14 1026.5
20260906124037 61 0.0 1.0 0.00 0.30 0.00 14 1026.5
20260906123017 61 0.0 3.0 0.00 0.30 0.00 14 1026.4
20260906122017 61 0.0 2.0 0.00 0.30 0.00 14 1026.3
20260906121017 62 270 1.0 4.0 0.00 0.30 0.00 15 1026.4
20260906120017 62 270 2.0 5.0 0.00 0.30 0.00 14 1026.2
20260906115017 62 270 2.0 5.0 0.00 0.30 0.00 14 1026.6
20260906114017 62 270 1.0 4.0 0.00 0.30 0.00 13 1026.7
20260906113037 61 248 2.0 4.0 0.00 0.30 0.00 13 1026.1
20260906112017 61 270 1.0 4.0 0.00 0.30 0.00 12 1026.1
20260906111017 61 248 1.0 3.0 0.00 0.30 0.00 12 1026.2
20260906110017 60 0.0 3.0 0.00 0.30 0.00 12 1026.0
20260906105017 60 0.0 0.0 0.00 0.30 0.00 13 1026.1
20260906104017 60 0.0 2.0 0.00 0.30 0.00 12 1025.9
20260906103017 60 0.0 2.0 0.00 0.30 0.00 12 1025.8
20260906102017 59 0.0 2.0 0.00 0.30 0.00 13 1025.9
20260906101017 59 0.0 0.0 0.00 0.30 0.00 13 1025.9
20260906100017 60 0.0 0.0 0.00 0.30 0.00 13 1025.9
20260906095017 60 0.0 0.0 0.00 0.30 0.00 12 1026.0
20260906094017 61 0.0 0.0 0.00 0.30 0.00 12 1026.0
20260906093037 60 0.0 0.0 0.00 0.30 0.00 12 1025.9
20260906092017 60 0.0 0.0 0.00 0.30 0.00 12 1025.6
20260906091017 60 0.0 0.0 0.00 0.30 0.00 12 1025.6
20260906090017 60 0.0 0.0 0.00 0.30 0.00 12 1025.6
20260906085017 60 0.0 0.0 0.00 0.30 0.00 12 1025.6
20260906084037 60 0.0 0.0 0.00 0.30 0.00 12 1025.6
20260906083036 60 0.0 0.0 0.00 0.30 0.00 12 1025.7
20260906082017 60 0.0 0.0 0.00 0.30 0.00 12 1027.5
20260906081016 61 0.0 0.0 0.00 0.30 0.00 12 1027.7
20260906080016 61 0.0 0.0 0.00 0.30 0.00 12 1027.6
20260906075017 61 0.0 0.0 0.00 0.30 0.00 12 1027.7
20260906074017 61 0.0 0.0 0.00 0.30 0.00 12 1028.1
20260906073017 61 0.0 0.0 0.00 0.30 0.00 13 1028.1
20260906072037 61 0.0 0.0 0.00 0.30 0.00 12 1028.2
20260906071017 61 0.0 0.0 0.00 0.30 0.00 13 1027.4
20260906070016 62 0.0 0.0 0.00 0.30 0.00 13 1027.9
20260906065016 62 0.0 0.0 0.00 0.30 0.00 12 1028.1
20260906064016 62 0.0 0.0 0.00 0.30 0.00 12 1027.2
20260906063016 62 0.0 0.0 0.00 0.30 0.00 13 1027.3
20260906062016 63 0.0 0.0 0.00 0.30 0.00 12 1027.3
20260906061016 63 0.0 0.0 0.00 0.30 0.00 12 1027.2
20260906060016 63 0.0 0.0 0.00 0.30 0.30 12 1027.3
20260906055016 63 0.0 0.0 0.00 0.30 0.30 12 1027.2
20260906054016 63 0.0 0.0 0.00 0.30 0.30 12 1029.1
20260906053016 63 0.0 0.0 0.00 0.30 0.30 12 1029.1
20260906052016 64 0.0 0.0 0.00 0.30 0.30 12 1029.6
20260906051016 64 0.0 0.0 0.00 0.30 0.30 12 1031.4
20260906050036 64 0.0 0.0 0.00 0.30 0.30 12 1031.4
20260906045016 63 0.0 0.0 0.00 0.30 0.30 12 1030.9
20260906044016 64 0.0 0.0 0.00 0.30 0.30 12 1031.0
20260906043016 64 0.0 0.0 0.00 0.30 0.30 12 1030.9
20260906042036 63 0.0 0.0 0.00 0.30 0.30 12 1030.5
20260906041015 63 0.0 0.0 0.00 0.30 0.30 11 1030.0
20260906040016 63 0.0 0.0 0.00 0.30 0.30 12 1029.8
20260906035015 63 0.0 0.0 0.00 0.30 0.30 12 1029.8
20260906034036 63 0.0 0.0 0.00 0.30 0.30 12 1028.8
20260906033015 63 0.0 2.0 0.00 0.30 0.30 12 1028.7
20260906032016 65 0.0 3.0 0.00 0.30 0.30 13 1029.1
20260906031015 65 293 1.0 4.0 0.00 0.30 0.30 14 1027.6
20260906030015 65 248 2.0 4.0 0.00 0.30 0.30 12 1027.1
20260906025015 64 270 2.0 5.0 0.00 0.30 0.30 11 1027.0
20260906024055 64 270 1.0 4.0 0.00 0.32 0.30 11 1026.5
20260906023018 64 0.0 3.0 0.00 0.41 0.30 11 1026.6
20260906022017 64 0.0 3.0 0.00 0.65 0.30 11 1026.0
20260906021017 64 0.0 2.0 0.00 0.69 0.30 11 1025.4
20260906020017 65 0.0 3.0 0.00 0.69 0.30 12 1025.3
20260906015017 64 248 1.0 3.0 0.00 0.69 0.30 11 1025.1
20260906014017 63 0.0 0.0 0.00 0.69 0.30 10 1024.7
20260906013017 63 0.0 0.0 0.01 0.69 0.30 10 1024.7
20260906012017 63 0.0 0.0 0.01 0.69 0.30 10 1024.5
20260906011017 63 0.0 2.0 0.01 0.69 0.30 10 1023.9
20260906010037 64 248 1.0 3.0 0.01 0.69 0.30 10 1024.4
20260906005017 64 270 1.0 3.0 0.01 0.69 0.30 10 1023.7
20260906004017 64 248 2.0 3.0 0.01 0.69 0.30 10 1023.7
20260906003017 64 270 1.0 4.0 0.00 0.68 0.29 10 1023.8
20260906002017 64 270 2.0 4.0 0.00 0.68 0.29 10 1023.9
20260906001017 64 270 1.0 3.0 0.00 0.68 0.29 10 1024.5
20260906000017 63 248 1.0 4.0 0.00 0.68 0.29 10 1024.1
20260905235017 64 248 2.0 5.0 0.01 0.68 0.29 10 1024.3
20260905234017 64 0.0 3.0 0.01 0.68 0.29 10 1025.0
20260905233017 64 248 1.0 3.0 0.01 0.68 0.29 10 1025.1
20260905232037 64 270 1.0 4.0 0.01 0.68 0.29 9 1025.0
20260905231017 64 248 1.0 4.0 0.01 0.68 0.29 9 1025.2
20260905230017 64 0.0 3.0 0.01 0.68 0.29 9 1025.3
20260905225017 65 0.0 4.0 0.00 0.67 0.28 10 1025.2
20260905224057 65 0.0 7.0 0.00 0.67 0.28 10 1025.2